LOT511 EPWA-LZKZ

Flight info

Callsign LOT511
Flight time 0h 45m
Altitude 35000
Route EVINA M985 KOTEK N133 RAZEC
Aircraft E195/M-SDE3GILORVW/S

Departure

Time 2026-05-07 18:25
Airport Warsaw Chopin Airport (EPWA)

Arrival

Time 2026-05-07 19:10
Airport Košice International Airport (LZKZ)
Time Latitude Longitude Altitude Speed Heading
2026-05-07 17:53 52.16815 20.97305 337 ft 0 kts 78°
2026-05-07 17:54 52.16848 20.97276 334 ft 0 kts 76°
2026-05-07 18:16 52.16846 20.97258 333 ft 4 kts 78°
2026-05-07 18:16 52.16841 20.97214 334 ft 4 kts 84°
2026-05-07 18:16 52.16839 20.97171 333 ft 4 kts 93°
2026-05-07 18:16 52.16843 20.97129 333 ft 4 kts 116°
2026-05-07 18:17 52.16854 20.97105 336 ft 0 kts 151°
2026-05-07 18:20 52.16844 20.97114 333 ft 3 kts 151°
2026-05-07 18:20 52.16811 20.97143 335 ft 7 kts 152°
2026-05-07 18:21 52.16754 20.97193 335 ft 11 kts 152°
2026-05-07 18:21 52.16675 20.97262 335 ft 14 kts 152°
2026-05-07 18:21 52.16593 20.97332 335 ft 9 kts 152°
2026-05-07 18:21 52.16560 20.97422 335 ft 10 kts 115°
2026-05-07 18:22 52.16527 20.97538 334 ft 12 kts 115°
2026-05-07 18:22 52.16503 20.97622 337 ft 13 kts 114°
2026-05-07 18:22 52.16454 20.97793 336 ft 8 kts 125°
2026-05-07 18:22 52.16401 20.97794 338 ft 9 kts 206°
2026-05-07 18:23 52.16339 20.97747 334 ft 11 kts 205°
2026-05-07 18:23 52.16306 20.97678 335 ft 8 kts 273°
2026-05-07 18:23 52.16320 20.97620 337 ft 0 kts 295°
2026-05-07 18:23 52.16320 20.97619 337 ft 1 kts 295°
2026-05-07 18:24 52.16380 20.97405 335 ft 52 kts 295°
2026-05-07 18:24 52.16624 20.96539 337 ft 114 kts 295°
2026-05-07 18:24 52.17022 20.95078 409 ft 160 kts 294°
2026-05-07 18:24 52.17489 20.93341 940 ft 177 kts 295°
2026-05-07 18:25 52.18004 20.91449 1619 ft 185 kts 295°
2026-05-07 18:25 52.18327 20.89326 2019 ft 201 kts 274°
2026-05-07 18:25 52.18161 20.86975 2552 ft 217 kts 260°
2026-05-07 18:25 52.17817 20.84590 3420 ft 216 kts 257°
2026-05-07 18:26 52.17446 20.82098 3950 ft 235 kts 257°
2026-05-07 18:26 52.17051 20.79450 4430 ft 253 kts 257°
2026-05-07 18:26 52.16621 20.76592 5162 ft 260 kts 256°
2026-05-07 18:26 52.16188 20.73737 6030 ft 261 kts 256°
2026-05-07 18:27 52.15535 20.71003 6825 ft 262 kts 236°
2026-05-07 18:27 52.14217 20.68966 7567 ft 266 kts 219°
2026-05-07 18:27 52.12742 20.67094 8294 ft 268 kts 220°
2026-05-07 18:27 52.11288 20.65189 8984 ft 271 kts 220°
2026-05-07 18:28 52.09653 20.63609 9591 ft 281 kts 199°
2026-05-07 18:28 52.07660 20.63349 10225 ft 292 kts 180°
2026-05-07 18:28 52.05599 20.63570 10533 ft 307 kts 178°
2026-05-07 18:28 52.03431 20.63840 11180 ft 311 kts 178°
2026-05-07 18:29 52.01286 20.64068 11906 ft 311 kts 179°
2026-05-07 18:29 51.99113 20.64284 12672 ft 311 kts 179°
2026-05-07 18:29 51.96956 20.64506 13390 ft 313 kts 179°
2026-05-07 18:29 51.94774 20.64747 14056 ft 314 kts 179°
2026-05-07 18:30 51.92603 20.64989 14635 ft 317 kts 179°
2026-05-07 18:30 51.90374 20.65247 15252 ft 320 kts 178°
2026-05-07 18:30 51.88146 20.65514 15871 ft 322 kts 178°
2026-05-07 18:30 51.85924 20.65786 16471 ft 325 kts 178°
2026-05-07 18:31 51.83655 20.66063 17072 ft 328 kts 178°
2026-05-07 18:31 51.81360 20.66345 17688 ft 330 kts 178°
2026-05-07 18:31 51.79068 20.66626 18314 ft 333 kts 178°
2026-05-07 18:31 51.76749 20.66912 18904 ft 334 kts 178°
2026-05-07 18:32 51.74432 20.67202 19532 ft 335 kts 178°
2026-05-07 18:32 51.72119 20.67483 20167 ft 335 kts 179°
2026-05-07 18:32 51.69790 20.67759 20783 ft 336 kts 179°
2026-05-07 18:32 51.67447 20.68041 21350 ft 338 kts 179°
2026-05-07 18:33 51.65113 20.68330 21915 ft 339 kts 179°
2026-05-07 18:33 51.62752 20.68623 22441 ft 340 kts 179°
2026-05-07 18:33 51.60398 20.68920 22981 ft 342 kts 179°
2026-05-07 18:33 51.58001 20.69228 23353 ft 347 kts 178°
2026-05-07 18:34 51.55579 20.69553 23782 ft 349 kts 178°
2026-05-07 18:34 51.53175 20.69868 24217 ft 351 kts 178°
2026-05-07 18:34 51.50746 20.70181 24669 ft 352 kts 178°
2026-05-07 18:34 51.48299 20.70496 25135 ft 353 kts 178°
2026-05-07 18:35 51.45828 20.70816 25584 ft 355 kts 178°
2026-05-07 18:35 51.43355 20.71140 25996 ft 357 kts 178°
2026-05-07 18:35 51.40880 20.71470 26383 ft 359 kts 178°
2026-05-07 18:35 51.38375 20.71807 26770 ft 360 kts 178°
2026-05-07 18:36 51.35884 20.72142 27134 ft 362 kts 178°
2026-05-07 18:36 51.33363 20.72486 27500 ft 363 kts 178°
2026-05-07 18:36 51.30841 20.72830 27850 ft 365 kts 178°
2026-05-07 18:36 51.28335 20.73174 28201 ft 366 kts 178°
2026-05-07 18:37 51.25776 20.73526 28552 ft 368 kts 178°
2026-05-07 18:37 51.23232 20.73875 28917 ft 369 kts 178°
2026-05-07 18:37 51.20672 20.74224 29413 ft 367 kts 178°
2026-05-07 18:37 51.18120 20.74563 29927 ft 365 kts 178°
2026-05-07 18:38 51.15614 20.74895 30343 ft 363 kts 178°
2026-05-07 18:38 51.13088 20.75236 30728 ft 361 kts 178°
2026-05-07 18:38 51.10592 20.75575 31099 ft 360 kts 178°
2026-05-07 18:38 51.08084 20.75919 31429 ft 359 kts 178°
2026-05-07 18:39 51.05622 20.76260 31756 ft 358 kts 178°
2026-05-07 18:39 51.03133 20.76606 32035 ft 358 kts 178°
2026-05-07 18:39 51.00661 20.76952 32271 ft 359 kts 178°
2026-05-07 18:39 50.98169 20.77304 32589 ft 358 kts 178°
2026-05-07 18:40 50.95693 20.77648 32929 ft 356 kts 178°
2026-05-07 18:40 50.93244 20.77986 33281 ft 355 kts 179°
2026-05-07 18:40 50.90761 20.78330 33619 ft 353 kts 179°
2026-05-07 18:40 50.88322 20.78669 33912 ft 352 kts 179°
2026-05-07 18:41 50.85890 20.79011 34110 ft 353 kts 179°
2026-05-07 18:41 50.83443 20.79362 34286 ft 354 kts 179°
2026-05-07 18:41 50.80978 20.79716 34479 ft 355 kts 179°
2026-05-07 18:41 50.78529 20.80067 34671 ft 356 kts 179°
2026-05-07 18:42 50.76071 20.80420 34862 ft 356 kts 179°
2026-05-07 18:42 50.73605 20.80770 35075 ft 357 kts 179°
2026-05-07 18:42 50.71116 20.81132 35076 ft 363 kts 178°
2026-05-07 18:43 50.65975 20.81898 34955 ft 379 kts 178°
2026-05-07 18:43 50.60640 20.82698 34956 ft 391 kts 178°
2026-05-07 18:44 50.55171 20.83509 34961 ft 397 kts 178°
2026-05-07 18:44 50.49661 20.84325 34919 ft 398 kts 178°
2026-05-07 18:45 50.44145 20.85135 34941 ft 401 kts 178°
2026-05-07 18:45 50.38589 20.85952 34953 ft 401 kts 178°
2026-05-07 18:46 50.33008 20.86774 34959 ft 402 kts 178°
2026-05-07 18:46 50.27466 20.87581 34959 ft 401 kts 178°
2026-05-07 18:47 50.21902 20.88391 34957 ft 401 kts 178°
2026-05-07 18:47 50.16351 20.89199 34958 ft 401 kts 178°
2026-05-07 18:48 50.11681 20.89876 34961 ft 402 kts 178°
2026-05-07 18:48 50.06106 20.90684 34962 ft 403 kts 178°
2026-05-07 18:48 50.03332 20.91085 34845 ft 402 kts 178°
2026-05-07 18:49 50.00568 20.91497 34516 ft 391 kts 178°
2026-05-07 18:49 49.97904 20.91896 34209 ft 379 kts 178°
2026-05-07 18:49 49.95320 20.92277 33601 ft 374 kts 178°
2026-05-07 18:49 49.92741 20.92653 33137 ft 365 kts 178°
2026-05-07 18:50 49.90257 20.93009 32682 ft 358 kts 179°
2026-05-07 18:50 49.87776 20.93360 32176 ft 354 kts 178°
2026-05-07 18:50 49.85344 20.93724 31762 ft 354 kts 178°
2026-05-07 18:50 49.82833 20.94100 31242 ft 363 kts 178°
2026-05-07 18:51 49.80306 20.94478 30776 ft 369 kts 178°
2026-05-07 18:51 49.77719 20.94856 30257 ft 374 kts 178°
2026-05-07 18:51 49.75136 20.95234 29744 ft 375 kts 178°
2026-05-07 18:51 49.72558 20.95605 29286 ft 376 kts 178°
2026-05-07 18:52 49.69937 20.95977 28774 ft 378 kts 178°
2026-05-07 18:52 49.67287 20.96356 28249 ft 379 kts 178°
2026-05-07 18:52 49.64696 20.96724 27779 ft 377 kts 178°
2026-05-07 18:52 49.62091 20.97098 27267 ft 373 kts 178°
2026-05-07 18:53 49.59526 20.97465 26772 ft 369 kts 178°
2026-05-07 18:53 49.56978 20.97822 26287 ft 367 kts 178°
2026-05-07 18:53 49.54442 20.98173 25796 ft 364 kts 178°
2026-05-07 18:53 49.51930 20.98522 25319 ft 363 kts 178°
2026-05-07 18:54 49.49394 20.98882 24826 ft 362 kts 177°
2026-05-07 18:54 49.46906 20.99236 24347 ft 360 kts 177°
2026-05-07 18:54 49.44411 20.99585 23865 ft 358 kts 177°
2026-05-07 18:54 49.41937 20.99926 23365 ft 356 kts 177°
2026-05-07 18:55 49.39485 21.00261 22898 ft 353 kts 177°
2026-05-07 18:55 49.37033 21.00591 22428 ft 351 kts 177°
2026-05-07 18:55 49.34629 21.00917 21968 ft 350 kts 177°
2026-05-07 18:55 49.32234 21.01594 21521 ft 350 kts 169°
2026-05-07 18:56 49.29867 21.02444 21027 ft 349 kts 170°
2026-05-07 18:56 49.27489 21.03295 20599 ft 346 kts 169°
2026-05-07 18:56 49.25159 21.04132 20104 ft 345 kts 169°
2026-05-07 18:56 49.22831 21.04969 19663 ft 343 kts 169°
2026-05-07 18:57 49.20513 21.05811 19211 ft 341 kts 169°
2026-05-07 18:57 49.18229 21.06639 18767 ft 339 kts 169°
2026-05-07 18:57 49.15930 21.07472 18289 ft 337 kts 169°
2026-05-07 18:57 49.13672 21.08292 17865 ft 333 kts 169°
2026-05-07 18:58 49.11411 21.09111 17399 ft 331 kts 169°
2026-05-07 18:58 49.09184 21.09928 16991 ft 329 kts 169°
2026-05-07 18:58 49.06961 21.10753 16514 ft 329 kts 169°
2026-05-07 18:58 49.04738 21.11573 16121 ft 327 kts 169°
2026-05-07 18:59 49.02520 21.12394 15643 ft 327 kts 169°
2026-05-07 18:59 49.00343 21.13197 15231 ft 323 kts 169°
2026-05-07 18:59 48.98151 21.13986 14806 ft 322 kts 172°
2026-05-07 18:59 48.95953 21.14276 14419 ft 313 kts 180°
2026-05-07 19:00 48.93792 21.14354 13954 ft 310 kts 181°
2026-05-07 19:00 48.91656 21.14419 13573 ft 304 kts 181°
2026-05-07 19:00 48.89564 21.14485 13183 ft 298 kts 181°
2026-05-07 19:00 48.87503 21.14545 12777 ft 294 kts 181°
2026-05-07 19:01 48.85496 21.14607 12400 ft 288 kts 180°
2026-05-07 19:01 48.83519 21.14559 12028 ft 281 kts 190°
2026-05-07 19:01 48.81603 21.13965 11695 ft 279 kts 194°
2026-05-07 19:01 48.79718 21.13296 11296 ft 281 kts 194°
2026-05-07 19:02 48.77809 21.12626 10925 ft 280 kts 194°
2026-05-07 19:02 48.75926 21.11946 10547 ft 278 kts 194°
2026-05-07 19:02 48.74025 21.11291 10194 ft 278 kts 193°
2026-05-07 19:02 48.72145 21.10671 9822 ft 276 kts 193°
2026-05-07 19:03 48.70294 21.10039 9451 ft 274 kts 194°
2026-05-07 19:03 48.68430 21.09399 9106 ft 272 kts 194°
2026-05-07 19:03 48.66594 21.08731 8726 ft 271 kts 195°
2026-05-07 19:03 48.64765 21.08069 8361 ft 270 kts 194°
2026-05-07 19:04 48.62948 21.07422 7995 ft 269 kts 194°
2026-05-07 19:04 48.61134 21.06795 7671 ft 266 kts 194°
2026-05-07 19:04 48.59339 21.06171 7290 ft 266 kts 194°
2026-05-07 19:04 48.57536 21.05550 6948 ft 264 kts 194°
2026-05-07 19:05 48.55758 21.04936 6601 ft 263 kts 194°
2026-05-07 19:05 48.53978 21.04322 6233 ft 262 kts 194°
2026-05-07 19:05 48.52173 21.03900 5825 ft 263 kts 179°
2026-05-07 19:05 48.50455 21.04754 5517 ft 267 kts 148°
2026-05-07 19:06 48.49289 21.06900 5227 ft 269 kts 116°
2026-05-07 19:06 48.48677 21.12482 4523 ft 270 kts 99°
2026-05-07 19:06 48.48517 21.15260 4153 ft 264 kts 86°
2026-05-07 19:07 48.49137 21.17783 3840 ft 256 kts 51°
2026-05-07 19:07 48.50533 21.19287 3541 ft 242 kts 15°
2026-05-07 19:07 48.52133 21.19743 3341 ft 229 kts
2026-05-07 19:07 48.53698 21.19986 2965 ft 226 kts
2026-05-07 19:08 48.55229 21.20353 2659 ft 223 kts
2026-05-07 19:08 48.56739 21.20829 2437 ft 215 kts 10°
2026-05-07 19:08 48.58138 21.21313 2418 ft 198 kts
2026-05-07 19:08 48.59415 21.21765 2371 ft 186 kts 10°
2026-05-07 19:09 48.60664 21.22188 1964 ft 183 kts
2026-05-07 19:09 48.61928 21.22582 1387 ft 186 kts 11°
2026-05-07 19:09 48.63135 21.22985 1161 ft 171 kts 12°
2026-05-07 19:09 48.64235 21.23378 921 ft 162 kts 14°
2026-05-07 19:10 48.65293 21.23768 757 ft 146 kts 13°
2026-05-07 19:10 48.66152 21.24065 755 ft 104 kts 13°
2026-05-07 19:10 48.66720 21.24264 754 ft 66 kts 13°
2026-05-07 19:10 48.67054 21.24380 758 ft 32 kts 13°
2026-05-07 19:11 48.67171 21.24420 758 ft 5 kts 12°
2026-05-07 19:11 48.67216 21.24417 755 ft 8 kts 332°
2026-05-07 19:11 48.67240 21.24340 755 ft 8 kts 284°
2026-05-07 19:11 48.67252 21.24258 754 ft 7 kts 283°
2026-05-07 19:12 48.67257 21.24201 756 ft 5 kts 259°
2026-05-07 19:12 48.67230 21.24169 755 ft 6 kts 201°
2026-05-07 19:12 48.67186 21.24151 756 ft 5 kts 194°
2026-05-07 19:12 48.67170 21.24124 752 ft 4 kts 252°
2026-05-07 19:13 48.67174 21.24075 755 ft 6 kts 284°
2026-05-07 19:13 48.67186 21.24007 755 ft 8 kts 285°
2026-05-07 19:13 48.67198 21.23937 754 ft 2 kts 285°
2026-05-07 19:13 48.67210 21.23916 755 ft 3 kts 331°
2026-05-07 19:14 48.67232 21.23918 753 ft 4 kts 12°
2026-05-07 19:14 48.67248 21.23923 756 ft 1 kts 13°
2026-05-07 19:14 48.67253 21.23925 754 ft 0 kts 13°